Time,TemperatureF,DewpointF,PressureIn,WindDirection,WindDirectionDegrees,WindSpeedMPH,WindSpeedGustMPH,Humidity,HourlyPrecipIn,Conditions,Clouds,dailyrainin,SoftwareType,DateUTC
2014-12-18 00:02:00,39.8,33.5,30.02,NW,319,0.0,0.0,78,0.00,,,0.00,Wunderground v.1.15,2014-12-18 06:02:00,
2014-12-18 00:08:00,39.8,33.5,30.02,NNW,337,0.0,2.0,78,0.00,,,0.00,Wunderground v.1.15,2014-12-18 06:08:00,
2014-12-18 00:14:00,39.8,33.8,30.02,NNW,342,4.0,4.0,79,0.00,,,0.00,Wunderground v.1.15,2014-12-18 06:14:00,
2014-12-18 00:20:00,39.7,33.7,30.01,East,80,0.0,0.0,79,0.00,,,0.00,Wunderground v.1.15,2014-12-18 06:20:00,
2014-12-18 00:26:00,39.7,33.7,30.01,WNW,290,0.0,2.0,79,0.00,,,0.00,Wunderground v.1.15,2014-12-18 06:26:00,
2014-12-18 00:31:00,39.7,33.7,30.01,NNW,334,0.0,1.0,79,0.00,,,0.00,Wunderground v.1.15,2014-12-18 06:31:00,
2014-12-18 00:37:00,39.6,33.6,30.01,NNE,28,0.0,3.0,79,0.00,,,0.00,Wunderground v.1.15,2014-12-18 06:37:00,
2014-12-18 00:43:00,39.5,33.8,30.02,NNE,21,0.0,2.0,80,0.00,,,0.00,Wunderground v.1.15,2014-12-18 06:43:00,
2014-12-18 00:48:00,39.5,33.8,30.02,NNE,20,0.0,2.0,80,0.00,,,0.00,Wunderground v.1.15,2014-12-18 06:48:00,
2014-12-18 00:53:00,39.5,33.8,30.02,NNE,13,0.0,2.0,80,0.00,,,0.00,Wunderground v.1.15,2014-12-18 06:53:00,
2014-12-18 00:59:00,39.5,34.2,30.03,NNE,13,0.0,2.0,81,0.00,,,0.00,Wunderground v.1.15,2014-12-18 06:59:00,
2014-12-18 01:04:00,39.5,34.2,30.03,NNE,14,0.0,0.0,81,0.00,,,0.00,Wunderground v.1.15,2014-12-18 07:04:00,
2014-12-18 01:10:00,39.4,34.1,30.04,NNE,14,0.0,0.0,81,0.00,,,0.00,Wunderground v.1.15,2014-12-18 07:10:00,
2014-12-18 01:15:00,39.4,34.1,30.04,North,5,0.0,0.0,81,0.00,,,0.00,Wunderground v.1.15,2014-12-18 07:15:00,
2014-12-18 01:21:00,39.3,34.0,30.03,NNE,21,0.0,0.0,81,0.00,,,0.00,Wunderground v.1.15,2014-12-18 07:21:00,
2014-12-18 01:27:00,39.3,34.0,30.03,NW,326,0.0,1.0,81,0.00,,,0.00,Wunderground v.1.15,2014-12-18 07:27:00,
2014-12-18 01:33:00,39.2,34.2,30.04,NW,326,0.0,3.0,82,0.00,,,0.00,Wunderground v.1.15,2014-12-18 07:33:00,
2014-12-18 01:39:00,39.1,34.1,30.05,NNW,336,0.0,3.0,82,0.00,,,0.00,Wunderground v.1.15,2014-12-18 07:39:00,
2014-12-18 01:45:00,39.1,34.1,30.04,NNW,336,0.0,1.0,82,0.00,,,0.00,Wunderground v.1.15,2014-12-18 07:45:00,
2014-12-18 01:50:00,39.0,34.3,30.04,NE,42,0.0,0.0,83,0.00,,,0.00,Wunderground v.1.15,2014-12-18 07:50:00,
2014-12-18 01:56:00,38.9,34.2,30.05,NE,42,0.0,0.0,83,0.00,,,0.00,Wunderground v.1.15,2014-12-18 07:56:00,
2014-12-18 02:01:00,38.9,34.5,30.05,NE,41,0.0,0.0,84,0.00,,,0.00,Wunderground v.1.15,2014-12-18 08:01:00,
2014-12-18 02:06:00,38.9,34.5,30.04,ENE,68,0.0,3.0,84,0.00,,,0.00,Wunderground v.1.15,2014-12-18 08:06:00,
2014-12-18 02:11:00,38.8,34.4,30.05,ENE,68,0.0,0.0,84,0.00,,,0.00,Wunderground v.1.15,2014-12-18 08:11:00,
2014-12-18 02:16:00,38.7,34.6,30.05,ENE,68,0.0,0.0,85,0.00,,,0.00,Wunderground v.1.15,2014-12-18 08:16:00,
2014-12-18 02:21:00,38.7,34.6,30.04,NE,42,0.0,0.0,85,0.00,,,0.00,Wunderground v.1.15,2014-12-18 08:21:00,
2014-12-18 02:26:00,38.7,34.9,30.01,NE,42,0.0,0.0,86,0.00,,,0.00,Wunderground v.1.15,2014-12-18 08:26:00,
2014-12-18 02:31:00,38.6,35.1,30.00,SE,145,1.0,6.0,87,0.00,,,0.01,Wunderground v.1.15,2014-12-18 08:31:00,
2014-12-18 02:36:00,38.5,35.0,30.01,SE,144,0.0,6.0,87,0.00,,,0.01,Wunderground v.1.15,2014-12-18 08:36:00,
2014-12-18 02:42:00,38.3,34.8,30.02,South,183,0.0,1.0,87,0.00,,,0.01,Wunderground v.1.15,2014-12-18 08:42:00,
2014-12-18 02:47:00,38.3,35.1,30.02,South,183,0.0,1.0,88,0.00,,,0.01,Wunderground v.1.15,2014-12-18 08:47:00,
2014-12-18 02:52:00,38.3,35.3,30.03,South,183,0.0,0.0,89,0.00,,,0.01,Wunderground v.1.15,2014-12-18 08:52:00,
2014-12-18 02:57:00,38.3,35.3,30.01,South,183,0.0,0.0,89,0.00,,,0.01,Wunderground v.1.15,2014-12-18 08:57:00,
2014-12-18 03:02:00,38.2,35.5,30.01,South,183,0.0,0.0,90,0.00,,,0.01,Wunderground v.1.15,2014-12-18 09:02:00,
2014-12-18 03:07:00,38.2,35.5,30.00,South,183,0.0,0.0,90,0.00,,,0.01,Wunderground v.1.15,2014-12-18 09:07:00,
2014-12-18 03:12:00,38.1,35.4,30.01,South,183,0.0,3.0,90,0.00,,,0.02,Wunderground v.1.15,2014-12-18 09:12:00,
2014-12-18 03:17:00,38.0,35.3,30.00,South,183,0.0,3.0,90,0.00,,,0.02,Wunderground v.1.15,2014-12-18 09:17:00,
2014-12-18 03:22:00,38.0,35.6,30.00,South,183,0.0,0.0,91,0.00,,,0.02,Wunderground v.1.15,2014-12-18 09:22:00,
2014-12-18 03:27:00,37.9,35.5,29.99,South,183,0.0,0.0,91,0.00,,,0.03,Wunderground v.1.15,2014-12-18 09:27:00,
2014-12-18 03:32:00,37.9,35.5,29.99,South,183,0.0,0.0,91,0.00,,,0.03,Wunderground v.1.15,2014-12-18 09:32:00,
2014-12-18 03:37:00,37.8,35.4,29.99,South,183,0.0,0.0,91,0.00,,,0.03,Wunderground v.1.15,2014-12-18 09:37:00,
2014-12-18 03:42:00,37.8,35.4,29.99,SSE,168,0.0,0.0,91,0.00,,,0.03,Wunderground v.1.15,2014-12-18 09:42:00,
2014-12-18 03:47:00,37.8,35.4,29.99,SSE,168,0.0,0.0,91,0.00,,,0.03,Wunderground v.1.15,2014-12-18 09:47:00,
2014-12-18 03:52:00,37.8,35.7,29.98,SSE,168,0.0,0.0,92,0.00,,,0.03,Wunderground v.1.15,2014-12-18 09:52:00,
2014-12-18 03:57:00,37.8,35.7,29.99,SSE,168,0.0,0.0,92,0.00,,,0.03,Wunderground v.1.15,2014-12-18 09:57:00,
2014-12-18 04:02:00,37.7,35.6,29.98,SSE,167,0.0,0.0,92,0.00,,,0.03,Wunderground v.1.15,2014-12-18 10:02:00,
2014-12-18 04:07:00,37.7,35.6,29.98,SSE,167,0.0,0.0,92,0.00,,,0.03,Wunderground v.1.15,2014-12-18 10:07:00,
2014-12-18 04:12:00,37.7,35.6,29.98,SSE,167,0.0,0.0,92,0.00,,,0.03,Wunderground v.1.15,2014-12-18 10:12:00,
2014-12-18 04:17:00,37.7,35.6,29.97,SSE,163,0.0,0.0,92,0.00,,,0.03,Wunderground v.1.15,2014-12-18 10:17:00,
2014-12-18 04:22:00,37.7,35.6,29.98,SSE,163,0.0,0.0,92,0.00,,,0.03,Wunderground v.1.15,2014-12-18 10:22:00,
2014-12-18 04:27:00,37.7,35.6,29.97,SSE,153,0.0,1.0,92,0.00,,,0.03,Wunderground v.1.15,2014-12-18 10:27:00,
2014-12-18 04:32:00,37.7,35.6,29.97,SSE,153,0.0,0.0,92,0.00,,,0.04,Wunderground v.1.15,2014-12-18 10:32:00,
2014-12-18 04:37:00,37.7,35.6,29.97,SSE,153,0.0,0.0,92,0.00,,,0.04,Wunderground v.1.15,2014-12-18 10:37:00,
2014-12-18 04:42:00,37.7,35.6,29.97,SSE,152,0.0,0.0,92,0.00,,,0.04,Wunderground v.1.15,2014-12-18 10:42:00,
2014-12-18 04:47:00,37.7,35.9,29.97,East,84,0.0,1.0,93,0.00,,,0.04,Wunderground v.1.15,2014-12-18 10:47:00,
2014-12-18 04:52:00,37.7,35.6,29.97,East,85,0.0,0.0,92,0.00,,,0.04,Wunderground v.1.15,2014-12-18 10:52:00,
2014-12-18 04:57:00,37.7,35.9,29.97,East,85,0.0,0.0,93,0.00,,,0.04,Wunderground v.1.15,2014-12-18 10:57:00,
2014-12-18 05:02:00,37.7,35.9,29.97,East,84,0.0,0.0,93,0.00,,,0.04,Wunderground v.1.15,2014-12-18 11:02:00,
2014-12-18 05:07:00,37.7,35.9,29.97,East,85,0.0,0.0,93,0.00,,,0.04,Wunderground v.1.15,2014-12-18 11:07:00,
2014-12-18 05:12:00,37.8,36.0,29.97,East,84,0.0,0.0,93,0.00,,,0.04,Wunderground v.1.15,2014-12-18 11:12:00,
2014-12-18 05:17:00,37.8,36.0,29.98,East,84,0.0,0.0,93,0.00,,,0.04,Wunderground v.1.15,2014-12-18 11:17:00,
2014-12-18 05:22:00,37.8,36.0,29.98,East,85,0.0,0.0,93,0.00,,,0.04,Wunderground v.1.15,2014-12-18 11:22:00,
2014-12-18 05:27:00,37.8,36.0,29.98,East,86,0.0,0.0,93,0.00,,,0.04,Wunderground v.1.15,2014-12-18 11:27:00,
2014-12-18 05:32:00,37.8,36.0,29.97,East,86,0.0,0.0,93,0.00,,,0.04,Wunderground v.1.15,2014-12-18 11:32:00,
2014-12-18 05:37:00,37.9,36.1,29.97,East,86,0.0,0.0,93,0.00,,,0.04,Wunderground v.1.15,2014-12-18 11:37:00,
2014-12-18 05:42:00,37.9,36.1,29.98,East,86,0.0,0.0,93,0.00,,,0.04,Wunderground v.1.15,2014-12-18 11:42:00,
2014-12-18 05:47:00,37.9,36.1,29.98,East,86,0.0,0.0,93,0.00,,,0.04,Wunderground v.1.15,2014-12-18 11:47:00,
2014-12-18 05:52:00,37.9,36.1,29.97,East,86,0.0,0.0,93,0.00,,,0.04,Wunderground v.1.15,2014-12-18 11:52:00,
2014-12-18 05:57:00,37.9,36.1,29.98,East,86,0.0,0.0,93,0.00,,,0.04,Wunderground v.1.15,2014-12-18 11:57:00,
2014-12-18 06:02:00,37.9,36.1,29.98,East,86,0.0,0.0,93,0.00,,,0.04,Wunderground v.1.15,2014-12-18 12:02:00,
2014-12-18 06:07:00,37.9,36.1,29.98,East,86,0.0,0.0,93,0.00,,,0.04,Wunderground v.1.15,2014-12-18 12:07:00,